Weather History for KFLL - May, 2015

Change the Weather History Date:

Thursday, May 21, 2015

  Actual Average Record
Temperature  
Mean Temperature 84 °F 81 °F  
Max Temperature 91 °F 87 °F 96 °F (2008)
Min Temperature 77 °F 75 °F 60 °F (1949)
Degree Days  
Heating Degree Days 0 0  
Month to date heating degree days 0 0  
Since 1 July heating degree days 97 112  
Cooling Degree Days 19 16  
Month to date cooling degree days 305 304  
Year to date cooling degree days 1366 1251  
Growing Degree Days 34 (Base 50)    
Moisture  
Dew Point 72 °F    
Average Humidity 69    
Maximum Humidity 85    
Minimum Humidity 52    
Precipitation  
Precipitation 0.00 in 0.17 in 4.27 in (1964)
Month to date precipitation 1.71 2.51  
Year to date precipitation 13.79 15.35  
Snow  
Snow 0.00 in - - ()
Month to date snowfall 0.0  
Since 1 July snowfall 0.0  
Snow Depth 0.00 in    
Sea Level Pressure  
Sea Level Pressure 29.98 in    
Wind  
Wind Speed 7 mph (SSW)    
Max Wind Speed 18 mph    
Max Gust Speed 23 mph    
Visibility 10 miles    
Events Thunderstorm    
T = Trace of Precipitation, MM = Missing Value Source: NWS Daily Summary

Daily Weather History Graph

Daily Weather History Graph

Search for Another Location

Airport or City:

Trip Planner

Search our weather history database for the weather conditions in past years. The results will help you decide how hot, cold, wet, or windy it might be!

Date:

Astronomy

May. 21, 2015 Rise Set
Actual Time 6:31 AM EDT 8:02 PM EDT
Civil Twilight 6:06 AM EDT 8:28 PM EDT
Nautical Twilight 5:36 AM EDT 8:58 PM EDT
Astronomical Twilight 5:04 AM EDT 9:30 PM EDT
Moon 9:44 AM EDT (5/21) 11:21 PM EDT (5/21)
Length of Visible Light 14h 21m
Length of Day
13h 31m
Waxing Crescent, 14% of the Moon is Illuminated
May 21
Waxing Crescent
May 25
First Quarter
Jun 2
Full
Jun 9
Last Quarter
Jun 16
New

Hourly Weather History & Observations

Time (EDT) Temp. Heat Index Dew Point Humidity Pressure Visibility Wind Dir Wind Speed Gust Speed Precip Events Conditions
12:53 AM 79.0 °F - 73.0 °F 82% 29.99 in 10.0 mi South 3.5 mph - N/A   Partly Cloudy
1:53 AM 79.0 °F - 72.0 °F 79% 29.96 in 10.0 mi South 5.8 mph - N/A   Partly Cloudy
2:53 AM 78.1 °F - 72.0 °F 81% 29.97 in 10.0 mi WSW 3.5 mph - N/A   Partly Cloudy
3:53 AM 78.1 °F - 72.0 °F 81% 29.97 in 10.0 mi WSW 3.5 mph - N/A   Partly Cloudy
4:53 AM 78.1 °F - 72.0 °F 81% 29.96 in 10.0 mi SSW 8.1 mph - N/A   Partly Cloudy
5:53 AM 78.1 °F - 72.0 °F 81% 29.96 in 10.0 mi SSW 6.9 mph - N/A   Partly Cloudy
6:53 AM 77.0 °F - 72.0 °F 84% 29.98 in 10.0 mi WSW 6.9 mph - N/A   Partly Cloudy
7:53 AM 78.1 °F - 73.0 °F 84% 29.99 in 5.0 mi West 8.1 mph - N/A   Haze
8:53 AM 81.0 °F 85.8 °F 73.0 °F 77% 30.00 in 7.0 mi WNW 4.6 mph - N/A   Partly Cloudy
9:53 AM 84.0 °F 89.6 °F 72.0 °F 67% 30.00 in 10.0 mi West 8.1 mph - N/A   Partly Cloudy
10:53 AM 86.0 °F 93.0 °F 73.0 °F 65% 30.01 in 10.0 mi Variable 5.8 mph - N/A   Partly Cloudy
11:53 AM 89.1 °F 95.0 °F 71.1 °F 55% 30.01 in 10.0 mi West 6.9 mph - N/A   Mostly Cloudy
12:53 PM 90.0 °F 95.4 °F 70.0 °F 52% 29.99 in 10.0 mi North 4.6 mph - N/A   Mostly Cloudy
1:53 PM 87.1 °F 95.4 °F 73.9 °F 65% 29.97 in 10.0 mi ESE 12.7 mph - N/A   Mostly Cloudy
2:53 PM 88.0 °F 97.5 °F 75.0 °F 65% 29.96 in 10.0 mi SE 13.8 mph - N/A   Mostly Cloudy
3:53 PM 86.0 °F 95.1 °F 75.0 °F 70% 29.96 in 10.0 mi SE 15.0 mph - N/A   Mostly Cloudy
4:10 PM 86.0 °F 93.8 °F 73.9 °F 67% 29.95 in 10.0 mi SSE 16.1 mph - N/A Thunderstorm Thunderstorm
4:44 PM 86.0 °F 93.8 °F 73.9 °F 67% 29.94 in 10.0 mi SSE 13.8 mph 17.3 mph N/A   Mostly Cloudy
4:53 PM 86.0 °F 93.0 °F 73.0 °F 65% 29.94 in 10.0 mi SSE 11.5 mph - N/A   Mostly Cloudy
5:53 PM 86.0 °F 93.8 °F 73.9 °F 67% 29.94 in 10.0 mi SSE 12.7 mph - N/A   Mostly Cloudy
6:53 PM 84.0 °F 91.2 °F 73.9 °F 72% 29.95 in 10.0 mi SSE 9.2 mph - N/A   Mostly Cloudy
7:53 PM 84.0 °F 91.2 °F 73.9 °F 72% 29.97 in 10.0 mi SSW 6.9 mph - N/A   Mostly Cloudy
8:53 PM 82.0 °F 87.4 °F 73.0 °F 74% 29.97 in 10.0 mi West 4.6 mph - N/A   Mostly Cloudy
9:53 PM 81.0 °F 84.1 °F 69.1 °F 67% 29.99 in 10.0 mi SW 6.9 mph - N/A   Mostly Cloudy
10:53 PM 82.0 °F 85.5 °F 69.1 °F 65% 30.01 in 10.0 mi Calm Calm - N/A   Mostly Cloudy
11:53 PM 82.0 °F 85.5 °F 69.1 °F 65% 30.02 in 10.0 mi SW 4.6 mph - N/A   Overcast